User: anonymous   Login
Location: Albuquerque Trailhead
(34.7934°N, 106.3736°W)
Time: 16:05:12
(UTC+00:00)
Language:

Meteor 2-15 Rocket - Orbit

View from above orbital plane
View from above orbital plane
View from above satellite
View from above satellite

Ground track
Ground track

The orbit data is extracted from the following two-line orbital elements,

1 17291U 87001B   21258.87137913  .00000035  00000-0  18450-4 0  9993
2 17291  82.4666  54.6997 0011617  20.0062 340.1551 13.84587492753140
Epoch (UTC): 15 September 2021 20:54:47
Eccentricity: 0.0011617
inclination: 82.4666°
perigee height: 939 km
apogee height: 956 km
right ascension of ascending node: 54.6997°
argument of perigee: 20.0062°
revolutions per day: 13.84587492
mean anomaly at epoch: 340.1551°
orbit number at epoch: 75314

The dashed part of the orbit path shows where the satellite is in the earth's shadow,  

DLR